TimeMDT,TemperatureF,Dew PointF,Humidity,Sea Level PressureIn,VisibilityMPH,Wind Direction,Wind SpeedMPH,Gust SpeedMPH,PrecipitationIn,Events,Conditions,WindDirDegrees,DateUTC
12:53 AM,23.0,21.0,92,30.23,8.0,SW,3.5,-,N/A,,Clear,220,2012-10-28 06:53:00
1:53 AM,24.1,21.9,91,30.21,8.0,SSW,4.6,-,N/A,,Clear,200,2012-10-28 07:53:00
2:53 AM,23.0,21.0,92,30.19,8.0,Calm,Calm,-,N/A,,Clear,0,2012-10-28 08:53:00
3:53 AM,23.0,19.9,88,30.18,10.0,Calm,Calm,-,N/A,,Clear,0,2012-10-28 09:53:00
4:53 AM,24.1,21.0,88,30.18,9.0,Calm,Calm,-,N/A,,Clear,0,2012-10-28 10:53:00
5:53 AM,21.0,18.0,88,30.19,10.0,Calm,Calm,-,N/A,,Clear,0,2012-10-28 11:53:00
6:20 AM,23.0,19.4,86,30.15,9.0,Calm,Calm,-,N/A,,Partly Cloudy,0,2012-10-28 12:20:00
6:53 AM,19.9,18.0,92,30.21,6.0,Calm,Calm,-,N/A,,Clear,0,2012-10-28 12:53:00
7:53 AM,24.1,21.0,88,30.23,7.0,Calm,Calm,-,N/A,,Clear,0,2012-10-28 13:53:00
8:53 AM,32.0,30.0,92,30.22,5.0,Calm,Calm,-,N/A,,Clear,0,2012-10-28 14:53:00
9:53 AM,39.9,33.1,77,30.17,10.0,Calm,Calm,-,N/A,,Clear,0,2012-10-28 15:53:00
10:53 AM,44.1,30.9,60,30.16,10.0,West,6.9,-,N/A,,Clear,260,2012-10-28 16:53:00
11:53 AM,48.9,30.9,50,30.12,10.0,Variable,6.9,-,N/A,,Clear,0,2012-10-28 17:53:00
12:53 PM,54.0,30.0,40,30.09,10.0,West,6.9,-,N/A,,Clear,280,2012-10-28 18:53:00
1:53 PM,57.0,28.9,34,30.05,10.0,West,4.6,-,N/A,,Clear,270,2012-10-28 19:53:00
2:53 PM,57.9,28.0,32,30.03,10.0,Calm,Calm,-,N/A,,Clear,0,2012-10-28 20:53:00
3:53 PM,60.1,28.0,30,30.00,10.0,Variable,3.5,-,N/A,,Clear,0,2012-10-28 21:53:00
4:53 PM,57.0,32.0,39,30.00,10.0,ESE,3.5,-,N/A,,Clear,120,2012-10-28 22:53:00
5:53 PM,54.0,34.0,47,30.02,10.0,Calm,Calm,-,N/A,,Clear,0,2012-10-28 23:53:00
6:53 PM,48.0,30.9,52,30.04,10.0,East,3.5,-,N/A,,Clear,100,2012-10-29 00:53:00
7:53 PM,42.1,30.9,65,30.07,10.0,Calm,Calm,-,N/A,,Clear,0,2012-10-29 01:53:00
8:53 PM,41.0,32.0,70,30.06,10.0,Variable,3.5,-,N/A,,Clear,0,2012-10-29 02:53:00
9:53 PM,42.1,30.9,65,30.06,10.0,ENE,3.5,-,N/A,,Clear,70,2012-10-29 03:53:00
10:53 PM,34.0,28.9,82,30.08,10.0,Calm,Calm,-,N/A,,Clear,0,2012-10-29 04:53:00
11:53 PM,34.0,28.9,82,30.07,10.0,Calm,Calm,-,N/A,,Clear,0,2012-10-29 05:53:00